Regional Weather Roundup
Issued by NWS Wakefield, VA

Home | Current Version | Previous Version | Text Only | Print | Product List | Glossary On
Versions: 1 2 3 4 5 6 7 8 9 10 11 12 13 14 15 16 17 18 19 20 21 22 23 24 25 26 27 28 29 30 31 32 33 34 35 36 37 38 39 40 41 42 43 44 45 46 47 48 49 50
000
ASUS41 KAKQ 021210
RWRAKQ

REGIONAL WEATHER ROUNDUP
NATIONAL WEATHER SERVICE WAKEFIELD VA
700 AM EST MON MAR 02 2015

Note: "fair" indicates few or no clouds below 12,000 feet with no
significant weather and/or obstructions to visibility. * = Denotes
station may not report precipitation (e.g., rain,snow,etc.),
thunder or fog.

VAZ042-051-052>054-056-021300-
NORTHERN VIRGINIA

CITY           SKY/WX    TMP DP  RH WIND       PRES   REMARKS
WASH NATIONAL  CLOUDY    35  31  85 CALM      30.14R FOG
DULLES         CLOUDY    31  29  92 NW3       30.13R FOG
FORT BELVOIR   FOG       32  32 100 CALM      30.15R VSB 3/4
QUANTICO       FOG       33  30  88 CALM      30.16R VSB 1/16
FREDERICKSBRG* CLOUDY    34  34 100 CALM      30.14R FOG
STAFFORD*      FOG       32  32 100 CALM      30.18R VSB<1/4
WARRENTON      FOG       33  33 100 CALM      30.13R VSB 3/4
CULPEPER*      CLOUDY    34  34 100 CALM      30.13R FOG
MANASSAS*      CLOUDY    34  32  93 CALM      30.15R FOG
LEESBURG*      CLOUDY    34  34 100 NW9       30.14R FOG
WINCHESTER     MOCLDY    41  30  65 NW21G29   30.12R
FRONT ROYAL*   CLOUDY    32  30  93 SE3       30.12R
LURAY*         FAIR      46  34  61 W18G24    30.11R
$$

VAZ048-049-060>072-079>083-021300-
CENTRAL AND SOUTH CENTRAL VIRGINIA

CITY           SKY/WX    TMP DP  RH WIND       PRES   REMARKS
RICHMOND       CLOUDY    34  33  96 SW7       30.13R FOG
CHESTERFIELD*  CLOUDY    36  25  64 W3        30.13S
PETERSBURG*    CLOUDY    35  35 100 SW5       30.13S FOG
HANOVER        MOCLDY    34  33  96 SW5       30.14R FOG
TAPPAHANNOCK*  MOCLDY    34  32  92 W5        30.13R FOG
QUINTON*       CLOUDY    33  33 100 CALM      30.13R
CHARLOTTSVILLE PTCLDY    32  30  92 VRB3      30.09R FOG
GORDONSVILLE*  FOG       32  32 100 CALM      30.10R VSB 1/4
ORANGE*        FOG       34  34 100 CALM      30.13R VSB 1/2
LOUISA*        FOG       34  34 100 CALM      30.09R VSB 1/2
BUMPASS*       CLOUDY    32  32 100 CALM      30.12R VSB 1/2
FARMVILLE*       N/A     36  36 100 SW6       30.11S FOG
CREWE*         CLOUDY    35  34  95 SW5       30.12R
FORT PICKETT*  CLOUDY    33  33  98 SW9       30.12S VSB 1/2
CHASE CITY*    CLOUDY    37  37 100 CALM      30.14S VSB<1/4
CLARKSVILLE*   CLOUDY    32  32 100 CALM      30.15S VSB 1/4
SOUTH HILL*    CLOUDY    32  32  99 SW5       30.20F VSB<1/4
LAWRENCEVILLE* CLOUDY    32  32 100 SW7       30.14F VSB 1/4
EMPORIA*       FOG       32  32 100 CALM      30.18R VSB 1
$$

VAZ088>098-021300-
SOUTHEAST VIRGINIA

CITY           SKY/WX    TMP DP  RH WIND       PRES   REMARKS
NORFOLK        CLOUDY    35  33  92 SW13      30.12F FOG
VIRGINIA BEACH CLOUDY    37  34  89 SW10      30.12F FOG
NORFOLK NAVAL  CLOUDY    37  34  89 SW8       30.13F FOG
WEST POINT*    CLOUDY    36  34  92 W6        30.14R
SALUDA*        CLOUDY    33  32  96 W3        30.11F
NEWPORT NEWS   CLOUDY    36  33  89 SW10      30.12F FOG
LANGLEY AFB    CLOUDY    34  33  96 W9        30.12F FOG
FORT EUSTIS    CLOUDY    32 N/A N/A W6        30.11S
WILLIAMSBURG*  CLOUDY    36  36 100 W5        30.13S
HR EXEC AP*    CLOUDY    36  34  93 W5        30.15F
FRANKLIN*      CLOUDY    33  33 100 W5        30.17R FOG
WAKEFIELD      CLOUDY    33  32  96 SW6       30.14F FOG
$$

VAZ020-022-025-037-045-021300-
WEST CENTRAL AND SOUTHWEST VIRGINIA

CITY           SKY/WX    TMP DP  RH WIND       PRES   REMARKS
STAUNTON*      MOCLDY    46  34  62 W8        30.12R
WAYNESBORO*    PTSUNNY   44  35  70 SW12G20   30.10S
HOT SPRINGS VA CLOUDY    33  33 100 W23G33    30.08R WCI  20
LYNCHBURG      PTCLDY    39  36  89 VRB5      30.13R
DANVILLE       FOG       37  35  92 W8        30.18R VSB 3/4
SOUTH BOSTON*  CLOUDY    36  35  96 SW6       30.16R
MARTINSVILLE   FOG       34  34 100 CALM      30.19R VSB 1/2
ROANOKE        CLOUDY    46  37  71 W12       30.18R
BLACKSBURG     MOCLDY    40  35  84 W17G35    30.20R
DUBLIN*        CLOUDY    41  38  89 NW6       30.22R
MARION*        DRIZZLE   40  37  88 W22G30    30.24R
HILLSVILLE*    CLOUDY    42  40  93 W23G29    30.19R
RICHLANDS*     DRIZZLE   35  33  94 NW10      30.29R
WISE*          CLOUDY    34  34 100 NW8       30.32R FOG
ABINGDON*      LGT RAIN  41  41 100 NW5       30.30R
$$

MDZ021>025-VAZ099-100-021300-
SOUTHERN MARYLAND AND THE DELMARVA PENINSULA

CITY           SKY/WX    TMP DP  RH WIND       PRES   REMARKS
PATUXENT RIVER FOG       32  31  96 NW6       30.14R VSB 1/4
BAY BRIDGE APT   N/A     32  32 100 CALM      30.13R FOG
LEONARDTOWN    CLOUDY    32  32 100 CALM      30.15R VSB<1/4
DOVER          CLOUDY    33  33 100 CALM      30.11R FOG
GEORGETOWN     CLOUDY    32  31  96 W3        30.12R FOG
EASTON         FOG       34  34 100 CALM      30.16R VSB 3/4
CAMBRIDGE      NOT AVBL
SALISBURY      CLOUDY    35  32  88 CALM      30.12R FOG
OCEAN CITY     CLOUDY    32  32 100 W5        30.12R FOG
WALLOPS ISLAND MIX PCPN  32  32 100 NW6       30.12R FOG
ACCOMACK*      CLOUDY    32  32 100 W5        30.11R FOG
$$

NCZ012>017-030>032-021300-
NORTH CENTRAL AND EASTERN NORTH CAROLINA

CITY           SKY/WX    TMP DP  RH WIND       PRES   REMARKS
ROANOKE RAPIDS FOG       36  36 100 SW8       30.16F VSB 1/4
RALEIGH        FOG       37  35  92 SW6       30.19F VSB 1/8
ELIZABETH CITY FOG       38  37  97 SW9       30.16F VSB 1/2
AHOSKIE*       FOG       35  35  98 CALM      30.18S VSB 1/4
EDENTON*       FOG       38  38  99 W6        30.18F VSB 1/2
CURRITUCK*     CLOUDY    38  37  97 SW8       30.16F FOG
KILL DEVIL HLS FOG       40  40 100 W8        30.15R VSB 1/2
MANTEO         CLOUDY    41  41 100 W8        30.17S FOG
CAPE HATTERAS  FOG       41  41 100 W5        30.19S VSB 1/4
TARBORO*       FOG       39  38  97 SW5       30.20R VSB 1/2
GOLDSBORO      CLOUDY    40  40 100 W6        30.19R FOG
WASHINGTON     FOG       40  40  99 SW7       30.19S VSB 3/4
GREENVILLE     FOG       41  41 100 W5        30.20S VSB 1
NEW BERN       CLOUDY    44  43  96 W3        30.21S FOG
WILMINGTON     CLOUDY    45  44  97 SW9       30.23R FOG
$$

VAZ048-021300-
ELSEWHERE

CITY           SKY/WX    TMP DP  RH WIND       PRES   REMARKS
HARRISBURG PA  CLOUDY    28  25  88 CALM      30.12R FOG
BALTIMORE      MOCLDY    32  31  96 W7        30.12R FOG
ANNAPOLIS      CLOUDY    32  31  96 SW12G24   30.13R FOG     WCI  23
ANDREWS AFB    NOT AVBL
PHILADELPHIA   CLOUDY    32  30  92 W9        30.11R FOG
HENDERSON NC   FOG       35  34  96 SW9       30.16S VSB 1/4
GREENSBORO     FOG       37  37 100 W6        30.16F VSB 1/4
ROCKY MOUNT    FOG       40  39  97 SW5       30.19S VSB 1/2
$$

VAZ100-021300-
MARINE

STATION/POSITION TIME  TEMP    WIND        PRES    WAVE   SWELL
                       AIR SEA DIR/SP/G            HT/PER HT/PER
                 (UTC) (F)     (DEG/KT/KT) (MB)    (FT/S) (FT/S)
BRANDYWINE LGT   1200   32 30              1019.3F
CAPE MAY NJ      1200   31 33              1018.8F
LEWES DE         1200   33 30              1019.3R
15NM E FENWICK I 1200   33 35              1018.8S   3/ 8
OCEAN-CITY-INLET 1200   33 32              1019.1F
WACHAPREAGUE VA  1200   33 33  240/  3/  8 1019.4S
THOMAS POINT MD  1200   32 31     CALM     1021.4R
COVE POINT MD    1200   31                 1019.7F
SOLOMONS ISLAND  1200      33                N/A
BISHOPS HEAD MD  1200   32 31              1019.4R
CAMBRIDGE MD     1200   33 32              1020.0R
LEWISETTA VA     1200   33 32              1020.1R
RAPPAHANNOCK LGT 1200          200/ 11/ 11 1019.8F
STINGRAY PT      1200   33     230/  4/  6   N/A
YORK RVR RNG VA  1200          240/  9/ 10   N/A
YORKTOWN VA      1200   34 33  240/  7/  8 1019.5R
DOMINION TERM VA 1200   34     240/  8/  9 1020.3F
KIPTOPEKE VA     1200      36  220/  7/  9   N/A
CHES BAY BRIDGE  1200   35 33  230/ 11/ 12 1020.1S
CAPE HENRY VA    1200   35     230/  8/ 12 1018.8F
CHESAPEAKE LGHT  1100   35     240/ 11/ 11 1021.1R
WILLOUBY STN VA  1200   34     220/ 11/ 12 1020.4F
S CRANEY ISL VA  1200          220/  4/  6   N/A
CAPE HENRY BUOY  1200      35                N/A     3/ 6
1ST LANDING BUOY 1200   34     250/ 10/ 10 1020.1F
OFFSHORE WE BUOY 1200      36                N/A     4/ 6   3/ 6
64NM E OF VA BCH 1200   43 51  240/ 16/ 17 1020.0R   4/ 7   2/ 8
DUCK PIER NC     1200          250/ 14/ 18   N/A
44100 DUCK FRF   1200      37                N/A     3/ 7
44056 DUCK FRF   1200                        N/A     3/ 6
OREGON INLET NC  1200          220/ 11/ 12   N/A
HATTERAS NC      1200   42 42  240/  6/ 10 1022.5S
CAPE LOOKOUT NC  1100   45     250/  9/ 12 1023.0S
$$


USA.gov is the U.S. government's official web portal to all federal, state and local government web resources and services.